| time (UTC) | temp C | wind direction | speed KPH | gust KPH | rain 1hr cm | rain 24hr cm | rain mn cm | humidity % | barometer mb |
| 20260906230658 | 37 | 331 | 3.2 | 9.7 | 0.00 | 0.00 | 0.00 | 39 | 1010.7 |
| 20260906230200 | 37 | 298 | 3.2 | 9.7 | 0.00 | 0.00 | 0.00 | 40 | 1010.8 |
| 20260906225657 | 37 | 167 | 3.2 | 11.3 | 0.00 | 0.00 | 0.00 | 41 | 1010.9 |
| 20260906225158 | 37 | 159 | 4.8 | 12.9 | 0.00 | 0.00 | 0.00 | 41 | 1010.7 |
| 20260906224656 | 37 | 215 | 6.4 | 19.3 | 0.00 | 0.00 | 0.00 | 41 | 1010.7 |
| 20260906224155 | 37 | 136 | 4.8 | 19.3 | 0.00 | 0.00 | 0.00 | 40 | 1010.8 |
| 20260906223655 | 37 | 112 | 4.8 | 16.1 | 0.00 | 0.00 | 0.00 | 40 | 1010.8 |
| 20260906223149 | 38 | 172 | 3.2 | 11.3 | 0.00 | 0.00 | 0.00 | 39 | 1010.8 |
| 20260906222642 | 38 | 216 | 3.2 | 11.3 | 0.00 | 0.00 | 0.00 | 39 | 1010.8 |
| 20260906222137 | 38 | 88 | 3.2 | 11.3 | 0.00 | 0.00 | 0.00 | 38 | 1010.8 |
| 20260906221635 | 38 | 130 | 3.2 | 11.3 | 0.00 | 0.00 | 0.00 | 39 | 1010.9 |
| 20260906221134 | 38 | 157 | 3.2 | 11.3 | 0.00 | 0.00 | 0.00 | 39 | 1010.8 |
| 20260906220931 | 37 | 157 | 4.8 | 14.5 | 0.00 | 0.00 | 0.00 | 39 | 1010.8 |
| 20260906220134 | 37 | 143 | 4.8 | 14.5 | 0.00 | 0.00 | 0.00 | 40 | 1010.9 |
| 20260906215634 | 38 | 172 | 4.8 | 14.5 | 0.00 | 0.00 | 0.00 | 39 | 1010.8 |
| 20260906215132 | 38 | 99 | 4.8 | 12.9 | 0.00 | 0.00 | 0.00 | 38 | 1010.8 |
| 20260906214632 | 38 | 76 | 4.8 | 12.9 | 0.00 | 0.00 | 0.00 | 40 | 1010.8 |
| 20260906214131 | 38 | 178 | 6.4 | 20.9 | 0.00 | 0.00 | 0.00 | 40 | 1010.9 |
| 20260906213630 | 38 | 107 | 4.8 | 20.9 | 0.00 | 0.00 | 0.00 | 39 | 1011.0 |
| 20260906213131 | 38 | 99 | 3.2 | 12.9 | 0.00 | 0.00 | 0.00 | 41 | 1011.1 |
| 20260906212631 | 38 | 123 | 4.8 | 16.1 | 0.00 | 0.00 | 0.00 | 39 | 1011.1 |
| 20260906212129 | 38 | 74 | 4.8 | 16.1 | 0.00 | 0.00 | 0.00 | 40 | 1011.3 |
| 20260906211630 | 38 | 53 | 3.2 | 11.3 | 0.00 | 0.00 | 0.00 | 40 | 1011.3 |
| 20260906211129 | 38 | 128 | 3.2 | 11.3 | 0.00 | 0.00 | 0.00 | 41 | 1011.3 |
| 20260906210927 | 37 | 155 | 3.2 | 11.3 | 0.00 | 0.00 | 0.00 | 42 | 1011.4 |
| 20260906210128 | 37 | 162 | 4.8 | 11.3 | 0.00 | 0.00 | 0.00 | 42 | 1011.6 |
| 20260906205629 | 37 | 171 | 4.8 | 11.3 | 0.00 | 0.00 | 0.00 | 42 | 1011.7 |
| 20260906205128 | 37 | 121 | 4.8 | 16.1 | 0.00 | 0.00 | 0.00 | 40 | 1011.9 |
| 20260906204628 | 37 | 253 | 4.8 | 16.1 | 0.00 | 0.00 | 0.00 | 42 | 1011.9 |
| 20260906204132 | 37 | 206 | 4.8 | 14.5 | 0.00 | 0.00 | 0.00 | 43 | 1012.1 |
| 20260906203629 | 37 | 346 | 3.2 | 11.3 | 0.00 | 0.00 | 0.00 | 42 | 1012.1 |
| 20260906203128 | 37 | 176 | 4.8 | 11.3 | 0.00 | 0.00 | 0.00 | 44 | 1012.2 |
| 20260906202628 | 37 | 112 | 4.8 | 14.5 | 0.00 | 0.00 | 0.00 | 43 | 1012.1 |
| 20260906202124 | 36 | 213 | 4.8 | 14.5 | 0.00 | 0.00 | 0.00 | 45 | 1012.2 |
| 20260906201719 | 37 | 99 | 3.2 | 14.5 | 0.00 | 0.00 | 0.00 | 44 | 1012.4 |
| 20260906201651 | 36 | 109 | 3.2 | 14.5 | 0.00 | 0.00 | 0.00 | 44 | 1012.3 |
| 20260906200616 | 36 | 5 | 3.2 | 14.5 | 0.00 | 0.00 | 0.00 | 44 | 1012.4 |
| 20260906200116 | 37 | 119 | 4.8 | 14.5 | 0.00 | 0.00 | 0.00 | 44 | 1012.4 |
| 20260906195616 | 37 | 184 | 6.4 | 14.5 | 0.00 | 0.00 | 0.00 | 44 | 1012.4 |
| 20260906195116 | 37 | 191 | 4.8 | 14.5 | 0.00 | 0.00 | 0.00 | 45 | 1012.6 |
| 20260906194616 | 37 | 139 | 4.8 | 16.1 | 0.00 | 0.00 | 0.00 | 44 | 1012.5 |
| 20260906194232 | 36 | 138 | 6.4 | 16.1 | 0.00 | 0.00 | 0.00 | 45 | 1012.6 |
| 20260906194000 | 36 | 163 | 6.4 | 17.7 | 0.00 | 0.00 | 0.00 | 45 | 1012.7 |
| 20260906192622 | 36 | 345 | 4.8 | 17.7 | 0.00 | 0.00 | 0.00 | 46 | 1012.7 |
| 20260906192117 | 36 | 355 | 4.8 | 14.5 | 0.00 | 0.00 | 0.00 | 45 | 1012.8 |
| 20260906191616 | 36 | 70 | 4.8 | 12.9 | 0.00 | 0.00 | 0.00 | 45 | 1012.9 |
| 20260906191117 | 36 | 131 | 4.8 | 11.3 | 0.00 | 0.00 | 0.00 | 47 | 1013.1 |
| 20260906190612 | 36 | 146 | 4.8 | 11.3 | 0.00 | 0.00 | 0.00 | 46 | 1012.9 |
| 20260906190113 | 36 | 144 | 4.8 | 14.5 | 0.00 | 0.00 | 0.00 | 46 | 1012.9 |
| 20260906185612 | 36 | 236 | 6.4 | 14.5 | 0.00 | 0.00 | 0.00 | 47 | 1013.0 |
| 20260906185113 | 36 | 173 | 4.8 | 16.1 | 0.00 | 0.00 | 0.00 | 46 | 1013.1 |
| 20260906184612 | 36 | 111 | 4.8 | 16.1 | 0.00 | 0.00 | 0.00 | 47 | 1013.1 |
| 20260906184113 | 36 | 189 | 4.8 | 16.1 | 0.00 | 0.00 | 0.00 | 46 | 1013.2 |
| 20260906183612 | 37 | 145 | 4.8 | 16.1 | 0.00 | 0.00 | 0.00 | 44 | 1013.2 |
| 20260906183113 | 36 | 181 | 4.8 | 14.5 | 0.00 | 0.00 | 0.00 | 45 | 1013.3 |
| 20260906182908 | 36 | 169 | 4.8 | 14.5 | 0.00 | 0.00 | 0.00 | 46 | 1013.4 |
| 20260906182114 | 36 | 96 | 4.8 | 14.5 | 0.00 | 0.00 | 0.00 | 46 | 1013.4 |
| 20260906181613 | 36 | 130 | 3.2 | 11.3 | 0.00 | 0.00 | 0.00 | 48 | 1013.4 |
| 20260906181112 | 36 | 207 | 3.2 | 12.9 | 0.00 | 0.00 | 0.00 | 46 | 1013.6 |
| 20260906180607 | 36 | 217 | 3.2 | 12.9 | 0.00 | 0.00 | 0.00 | 47 | 1013.5 |
| 20260906175848 | 36 | 172 | 4.8 | 14.5 | 0.00 | 0.00 | 0.00 | 46 | 1013.8 |
| 20260906175058 | 36 | 160 | 4.8 | 12.9 | 0.00 | 0.00 | 0.00 | 47 | 1013.8 |
| 20260906174600 | 36 | 161 | 4.8 | 12.9 | 0.00 | 0.00 | 0.00 | 49 | 1013.9 |
| 20260906174058 | 35 | 38 | 4.8 | 12.9 | 0.00 | 0.00 | 0.00 | 49 | 1013.9 |
| 20260906173601 | 36 | 143 | 4.8 | 12.9 | 0.00 | 0.00 | 0.00 | 49 | 1013.9 |
| 20260906173347 | 35 | 112 | 3.2 | 11.3 | 0.00 | 0.00 | 0.00 | 50 | 1014.1 |
| 20260906172558 | 35 | 198 | 3.2 | 12.9 | 0.00 | 0.00 | 0.00 | 49 | 1014.2 |
| 20260906172205 | 35 | 130 | 3.2 | 11.3 | 0.00 | 0.00 | 0.00 | 49 | 1014.5 |
| 20260906172129 | 35 | 221 | 3.2 | 12.9 | 0.00 | 0.00 | 0.00 | 49 | 1014.3 |
| 20260906171059 | 35 | 159 | 4.8 | 11.3 | 0.00 | 0.00 | 0.00 | 50 | 1014.5 |
| 20260906170601 | 35 | 119 | 4.8 | 11.3 | 0.00 | 0.00 | 0.00 | 51 | 1014.5 |
| 20260906170058 | 35 | 44 | 3.2 | 11.3 | 0.00 | 0.00 | 0.00 | 52 | 1014.5 |
| 20260906165556 | 35 | 171 | 3.2 | 9.7 | 0.00 | 0.00 | 0.00 | 51 | 1014.5 |
| 20260906165154 | 35 | 144 | 4.8 | 11.3 | 0.00 | 0.00 | 0.00 | 52 | 1014.7 |
| 20260906165127 | 35 | 94 | 3.2 | 11.3 | 0.00 | 0.00 | 0.00 | 52 | 1014.5 |
| 20260906164056 | 35 | 192 | 4.8 | 9.7 | 0.00 | 0.00 | 0.00 | 52 | 1014.6 |
| 20260906163556 | 35 | 178 | 4.8 | 11.3 | 0.00 | 0.00 | 0.00 | 53 | 1014.7 |
| 20260906163100 | 35 | 106 | 4.8 | 12.9 | 0.00 | 0.00 | 0.00 | 52 | 1014.6 |
| 20260906162556 | 35 | 169 | 4.8 | 14.5 | 0.00 | 0.00 | 0.00 | 54 | 1014.5 |
| 20260906162057 | 34 | 110 | 4.8 | 14.5 | 0.00 | 0.00 | 0.00 | 54 | 1014.6 |
| 20260906161557 | 34 | 171 | 3.2 | 9.7 | 0.00 | 0.00 | 0.00 | 54 | 1014.6 |
| 20260906161053 | 34 | 5 | 3.2 | 9.7 | 0.00 | 0.00 | 0.00 | 53 | 1014.7 |
| 20260906160844 | 34 | 76 | 4.8 | 11.3 | 0.00 | 0.00 | 0.00 | 54 | 1014.6 |
| 20260906160054 | 34 | 142 | 3.2 | 11.3 | 0.00 | 0.00 | 0.00 | 54 | 1014.6 |
| 20260906155556 | 34 | 173 | 3.2 | 11.3 | 0.00 | 0.00 | 0.00 | 55 | 1014.5 |
| 20260906155054 | 34 | 69 | 3.2 | 11.3 | 0.00 | 0.00 | 0.00 | 55 | 1014.4 |
| 20260906154554 | 34 | 165 | 3.2 | 11.3 | 0.00 | 0.00 | 0.00 | 55 | 1014.5 |
| 20260906154053 | 34 | 196 | 3.2 | 11.3 | 0.00 | 0.00 | 0.00 | 57 | 1014.6 |
| 20260906153552 | 33 | 84 | 3.2 | 11.3 | 0.00 | 0.00 | 0.00 | 57 | 1014.5 |
| 20260906153053 | 33 | 69 | 3.2 | 6.4 | 0.00 | 0.00 | 0.00 | 58 | 1014.5 |
| 20260906152846 | 33 | 34 | 3.2 | 6.4 | 0.00 | 0.00 | 0.00 | 58 | 1014.4 |
| 20260906152053 | 33 | 162 | 1.6 | 6.4 | 0.00 | 0.00 | 0.00 | 59 | 1014.4 |
| 20260906151548 | 33 | 108 | 1.6 | 4.8 | 0.00 | 0.00 | 0.00 | 60 | 1014.3 |
| 20260906151048 | 33 | 21 | 1.6 | 4.8 | 0.00 | 0.00 | 0.00 | 61 | 1014.2 |
| 20260906150843 | 32 | 111 | 1.6 | 4.8 | 0.00 | 0.00 | 0.00 | 62 | 1014.2 |
| 20260906150047 | 32 | 119 | 1.6 | 4.8 | 0.00 | 0.00 | 0.00 | 63 | 1014.2 |
| 20260906145548 | 32 | 132 | 1.6 | 4.8 | 0.00 | 0.00 | 0.00 | 64 | 1014.1 |
| 20260906145048 | 32 | 60 | 1.6 | 4.8 | 0.00 | 0.00 | 0.00 | 65 | 1014.2 |
| 20260906144845 | 31 | 220 | 1.6 | 4.8 | 0.00 | 0.00 | 0.00 | 67 | 1014.2 |
| 20260906144339 | 31 | 186 | 1.6 | 3.2 | 0.00 | 0.00 | 0.00 | 68 | 1014.2 |
| 20260906143544 | 31 | 0 | 1.6 | 4.8 | 0.00 | 0.00 | 0.00 | 68 | 1014.3 |
| 20260906143044 | 31 | 49 | 1.6 | 4.8 | 0.00 | 0.00 | 0.00 | 69 | 1014.3 |
| 20260906142544 | 30 | 330 | 1.6 | 4.8 | 0.00 | 0.00 | 0.00 | 70 | 1014.3 |
| 20260906142044 | 30 | 349 | 0.0 | 4.8 | 0.00 | 0.00 | 0.00 | 71 | 1014.3 |
| 20260906141543 | 30 | 178 | 0.0 | 3.2 | 0.00 | 0.00 | 0.00 | 72 | 1014.3 |
| 20260906141044 | 29 | 81 | 0.0 | 3.2 | 0.00 | 0.00 | 0.00 | 74 | 1014.4 |
| 20260906140547 | 29 | 61 | 0.0 | 3.2 | 0.00 | 0.00 | 0.00 | 75 | 1014.4 |
| 20260906140148 | 28 | 96 | 0.0 | 3.2 | 0.00 | 0.00 | 0.00 | 80 | 1014.5 |
| 20260906140124 | 28 | 40 | 0.0 | 3.2 | 0.00 | 0.00 | 0.00 | 78 | 1014.4 |
| 20260906135044 | 28 | 105 | 0.0 | 3.2 | 0.00 | 0.00 | 0.00 | 82 | 1014.3 |
| 20260906134544 | 27 | 155 | 0.0 | 4.8 | 0.00 | 0.00 | 0.00 | 85 | 1014.2 |
| 20260906134043 | 27 | 101 | 0.0 | 4.8 | 0.00 | 0.00 | 0.00 | 86 | 1014.2 |
| 20260906133544 | 26 | 47 | 0.0 | 3.2 | 0.00 | 0.00 | 0.00 | 87 | 1014.3 |
| 20260906133043 | 26 | 123 | 0.0 | 1.6 | 0.00 | 0.00 | 0.00 | 87 | 1014.2 |
| 20260906132540 | 26 | 138 | 0.0 | 3.2 | 0.00 | 0.00 | 0.00 | 87 | 1014.3 |
| 20260906132334 | 26 | 67 | 0.0 | 3.2 | 0.00 | 0.00 | 0.00 | 88 | 1014.3 |
| 20260906131837 | 26 | 70 | 0.0 | 0.0 | 0.00 | 0.00 | 0.00 | 88 | 1014.3 |
| 20260906131036 | 26 | 173 | 0.0 | 0.0 | 0.00 | 0.00 | 0.00 | 88 | 1014.2 |
| 20260906130535 | 26 | 190 | 0.0 | 0.0 | 0.00 | 0.00 | 0.00 | 88 | 1014.2 |
| 20260906130036 | 25 | 53 | 0.0 | 0.0 | 0.00 | 0.00 | 0.00 | 88 | 1014.3 |
| 20260906125536 | 25 | 71 | 0.0 | 0.0 | 0.00 | 0.00 | 0.00 | 88 | 1014.1 |
| 20260906125036 | 25 | 71 | 0.0 | 0.0 | 0.00 | 0.00 | 0.00 | 88 | 1014.1 |
| 20260906124825 | 25 | 74 | 0.0 | 0.0 | 0.00 | 0.00 | 0.00 | 88 | 1014.1 |
| 20260906124034 | 25 | 74 | 0.0 | 0.0 | 0.00 | 0.00 | 0.00 | 88 | 1014.1 |
| 20260906123828 | 25 | 80 | 0.0 | 0.0 | 0.00 | 0.00 | 0.00 | 88 | 1014.0 |
| 20260906123034 | 25 | 141 | 0.0 | 0.0 | 0.00 | 0.00 | 0.00 | 88 | 1013.9 |
| 20260906122534 | 25 | 141 | 0.0 | 0.0 | 0.00 | 0.00 | 0.00 | 87 | 1013.9 |
| 20260906122034 | 25 | 141 | 0.0 | 0.0 | 0.00 | 0.00 | 0.00 | 87 | 1013.8 |
| 20260906121534 | 25 | 141 | 0.0 | 0.0 | 0.00 | 0.00 | 0.00 | 87 | 1013.8 |
| 20260906121035 | 25 | 141 | 0.0 | 0.0 | 0.00 | 0.00 | 0.00 | 87 | 1013.6 |
| 20260906120534 | 25 | 141 | 0.0 | 0.0 | 0.00 | 0.00 | 0.00 | 86 | 1013.5 |
| 20260906120034 | 25 | 141 | 0.0 | 0.0 | 0.00 | 0.00 | 0.00 | 86 | 1013.4 |
| 20260906115533 | 25 | 141 | 0.0 | 0.0 | 0.00 | 0.00 | 0.00 | 86 | 1013.7 |
| 20260906115034 | 25 | 141 | 0.0 | 0.0 | 0.00 | 0.00 | 0.00 | 86 | 1013.6 |
| 20260906114538 | 25 | 141 | 0.0 | 0.0 | 0.00 | 0.00 | 0.00 | 86 | 1013.6 |
| 20260906114033 | 25 | 141 | 0.0 | 0.0 | 0.00 | 0.00 | 0.00 | 86 | 1013.5 |
| 20260906113534 | 25 | 141 | 0.0 | 0.0 | 0.00 | 0.00 | 0.00 | 85 | 1013.5 |
| 20260906113035 | 25 | 141 | 0.0 | 0.0 | 0.00 | 0.00 | 0.00 | 85 | 1013.4 |
| 20260906112534 | 25 | 141 | 0.0 | 0.0 | 0.00 | 0.00 | 0.00 | 85 | 1013.3 |
| 20260906112325 | 26 | 141 | 0.0 | 0.0 | 0.00 | 0.00 | 0.00 | 85 | 1013.2 |
| 20260906111533 | 26 | 141 | 0.0 | 0.0 | 0.00 | 0.00 | 0.00 | 85 | 1013.3 |
| 20260906111038 | 26 | 141 | 0.0 | 0.0 | 0.00 | 0.00 | 0.00 | 85 | 1013.3 |
| 20260906110532 | 26 | 141 | 0.0 | 1.6 | 0.00 | 0.00 | 0.00 | 85 | 1013.2 |
| 20260906110326 | 26 | 141 | 0.0 | 1.6 | 0.00 | 0.00 | 0.00 | 85 | 1013.2 |
| 20260906105531 | 26 | 146 | 0.0 | 0.0 | 0.00 | 0.00 | 0.00 | 85 | 1013.1 |
| 20260906105031 | 26 | 146 | 0.0 | 0.0 | 0.00 | 0.00 | 0.00 | 85 | 1013.0 |
| 20260906104532 | 26 | 142 | 0.0 | 0.0 | 0.00 | 0.00 | 0.00 | 84 | 1013.0 |
| 20260906104324 | 26 | 142 | 0.0 | 0.0 | 0.00 | 0.00 | 0.00 | 83 | 1013.1 |
| 20260906103535 | 26 | 142 | 0.0 | 0.0 | 0.00 | 0.00 | 0.00 | 83 | 1012.9 |
| 20260906103318 | 26 | 142 | 0.0 | 0.0 | 0.00 | 0.00 | 0.00 | 83 | 1013.0 |
| 20260906102532 | 26 | 142 | 0.0 | 0.0 | 0.00 | 0.00 | 0.00 | 83 | 1012.9 |
| 20260906102327 | 26 | 142 | 0.0 | 0.0 | 0.00 | 0.00 | 0.00 | 82 | 1012.9 |
| 20260906101532 | 26 | 142 | 0.0 | 0.0 | 0.00 | 0.00 | 0.00 | 82 | 1012.9 |
| 20260906101032 | 26 | 142 | 0.0 | 0.0 | 0.00 | 0.00 | 0.00 | 81 | 1012.9 |
| 20260906100527 | 26 | 142 | 0.0 | 0.0 | 0.00 | 0.00 | 0.00 | 82 | 1012.9 |
| 20260906100031 | 26 | 142 | 0.0 | 0.0 | 0.00 | 0.00 | 0.00 | 81 | 1012.8 |
| 20260906095827 | 26 | 142 | 0.0 | 0.0 | 0.00 | 0.00 | 0.00 | 81 | 1012.8 |
| 20260906095026 | 26 | 142 | 0.0 | 0.0 | 0.00 | 0.00 | 0.00 | 81 | 1012.9 |
| 20260906094526 | 26 | 142 | 0.0 | 0.0 | 0.00 | 0.00 | 0.00 | 81 | 1012.8 |
| 20260906094025 | 27 | 142 | 0.0 | 0.0 | 0.00 | 0.00 | 0.00 | 81 | 1012.8 |
| 20260906093526 | 27 | 142 | 0.0 | 1.6 | 0.00 | 0.00 | 0.00 | 81 | 1012.7 |
| 20260906093026 | 27 | 142 | 0.0 | 3.2 | 0.00 | 0.00 | 0.00 | 81 | 1012.5 |
| 20260906092813 | 27 | 156 | 1.6 | 6.4 | 0.00 | 0.00 | 0.00 | 80 | 1012.6 |
| 20260906092400 | 27 | 190 | 1.6 | 6.4 | 0.00 | 0.00 | 0.00 | 80 | 1012.7 |
| 20260906092355 | 27 | 193 | 1.6 | 6.4 | 0.00 | 0.00 | 0.00 | 80 | 1012.5 |
| 20260906091022 | 27 | 192 | 1.6 | 6.4 | 0.00 | 0.00 | 0.00 | 80 | 1012.5 |
| 20260906090813 | 27 | 140 | 3.2 | 8.0 | 0.00 | 0.00 | 0.00 | 80 | 1012.4 |
| 20260906090022 | 27 | 149 | 3.2 | 8.0 | 0.00 | 0.00 | 0.00 | 80 | 1012.3 |
| 20260906085522 | 27 | 185 | 1.6 | 6.4 | 0.00 | 0.00 | 0.00 | 80 | 1012.4 |
| 20260906085027 | 27 | 143 | 1.6 | 6.4 | 0.00 | 0.00 | 0.00 | 80 | 1012.4 |
| 20260906084518 | 27 | 152 | 1.6 | 6.4 | 0.00 | 0.00 | 0.00 | 80 | 1012.4 |
| 20260906084016 | 27 | 192 | 1.6 | 4.8 | 0.00 | 0.00 | 0.00 | 80 | 1012.3 |
| 20260906083811 | 27 | 158 | 1.6 | 3.2 | 0.00 | 0.00 | 0.00 | 79 | 1012.3 |
| 20260906083014 | 27 | 143 | 1.6 | 4.8 | 0.00 | 0.00 | 0.00 | 79 | 1012.3 |
| 20260906082512 | 27 | 176 | 1.6 | 6.4 | 0.00 | 0.00 | 0.00 | 79 | 1012.3 |
| 20260906082008 | 27 | 128 | 1.6 | 6.4 | 0.00 | 0.00 | 0.00 | 79 | 1012.3 |
| 20260906081508 | 27 | 166 | 1.6 | 4.8 | 0.00 | 0.00 | 0.00 | 79 | 1012.2 |
| 20260906081005 | 27 | 143 | 1.6 | 4.8 | 0.00 | 0.00 | 0.00 | 78 | 1012.1 |
| 20260906080507 | 27 | 171 | 3.2 | 4.8 | 0.00 | 0.00 | 0.00 | 78 | 1012.3 |
| 20260906080008 | 27 | 136 | 3.2 | 6.4 | 0.00 | 0.00 | 0.00 | 78 | 1012.4 |
| 20260906075503 | 27 | 154 | 1.6 | 6.4 | 0.00 | 0.00 | 0.00 | 78 | 1012.3 |
| 20260906075004 | 27 | 138 | 1.6 | 3.2 | 0.00 | 0.00 | 0.00 | 77 | 1012.4 |
| 20260906074754 | 27 | 161 | 1.6 | 3.2 | 0.00 | 0.00 | 0.00 | 77 | 1012.3 |
| 20260906074005 | 27 | 184 | 1.6 | 3.2 | 0.00 | 0.00 | 0.00 | 76 | 1012.2 |
| 20260906073504 | 27 | 184 | 1.6 | 4.8 | 0.00 | 0.00 | 0.00 | 76 | 1012.3 |
| 20260906073004 | 27 | 173 | 1.6 | 4.8 | 0.00 | 0.00 | 0.00 | 76 | 1012.4 |
| 20260906072831 | 28 | 151 | 1.6 | 6.4 | 0.00 | 0.00 | 0.00 | 75 | 1012.4 |
| 20260906072827 | 27 | 153 | 1.6 | 3.2 | 0.00 | 0.00 | 0.00 | 75 | 1012.4 |
| 20260906071447 | 28 | 159 | 1.6 | 6.4 | 0.00 | 0.00 | 0.00 | 75 | 1012.7 |
| 20260906070946 | 28 | 173 | 1.6 | 3.2 | 0.00 | 0.00 | 0.00 | 74 | 1012.6 |
| 20260906070445 | 28 | 151 | 1.6 | 4.8 | 0.00 | 0.00 | 0.00 | 74 | 1012.6 |
| 20260906065946 | 28 | 144 | 1.6 | 4.8 | 0.00 | 0.00 | 0.00 | 74 | 1012.7 |
| 20260906065443 | 28 | 137 | 1.6 | 6.4 | 0.00 | 0.00 | 0.00 | 73 | 1012.7 |
| 20260906064941 | 28 | 95 | 1.6 | 6.4 | 0.00 | 0.00 | 0.00 | 73 | 1012.7 |
| 20260906064737 | 28 | 157 | 1.6 | 6.4 | 0.00 | 0.00 | 0.00 | 73 | 1012.7 |
| 20260906063942 | 28 | 176 | 1.6 | 6.4 | 0.00 | 0.00 | 0.00 | 73 | 1012.8 |
| 20260906063444 | 28 | 174 | 1.6 | 4.8 | 0.00 | 0.00 | 0.00 | 73 | 1012.8 |
| 20260906062939 | 28 | 154 | 1.6 | 8.0 | 0.00 | 0.00 | 0.00 | 72 | 1012.6 |
| 20260906062732 | 28 | 155 | 1.6 | 8.0 | 0.00 | 0.00 | 0.00 | 72 | 1012.6 |
| 20260906061939 | 28 | 117 | 1.6 | 8.0 | 0.00 | 0.00 | 0.00 | 72 | 1012.6 |
| 20260906061438 | 28 | 151 | 1.6 | 3.2 | 0.00 | 0.00 | 0.00 | 72 | 1012.5 |
| 20260906060937 | 28 | 159 | 1.6 | 3.2 | 0.00 | 0.00 | 0.00 | 72 | 1012.6 |
| 20260906060431 | 28 | 151 | 0.0 | 3.2 | 0.00 | 0.00 | 0.00 | 72 | 1012.6 |
| 20260906055928 | 28 | 160 | 0.0 | 0.0 | 0.00 | 0.00 | 0.00 | 71 | 1012.7 |
| 20260906055427 | 28 | 159 | 0.0 | 1.6 | 0.00 | 0.00 | 0.00 | 71 | 1012.8 |
| 20260906054926 | 28 | 170 | 0.0 | 3.2 | 0.00 | 0.00 | 0.00 | 70 | 1012.7 |
| 20260906054722 | 28 | 170 | 0.0 | 3.2 | 0.00 | 0.00 | 0.00 | 70 | 1012.7 |
| 20260906053923 | 28 | 199 | 0.0 | 3.2 | 0.00 | 0.00 | 0.00 | 70 | 1012.6 |
| 20260906053422 | 28 | 199 | 0.0 | 3.2 | 0.00 | 0.00 | 0.00 | 70 | 1012.7 |
| 20260906052920 | 29 | 186 | 1.6 | 4.8 | 0.00 | 0.00 | 0.00 | 70 | 1012.7 |
| 20260906052417 | 29 | 182 | 1.6 | 6.4 | 0.00 | 0.00 | 0.00 | 69 | 1012.6 |
| 20260906051917 | 29 | 171 | 1.6 | 6.4 | 0.00 | 0.00 | 0.00 | 69 | 1012.7 |
| 20260906051416 | 29 | 180 | 1.6 | 8.0 | 0.00 | 0.00 | 0.00 | 69 | 1012.6 |
| 20260906050915 | 29 | 200 | 1.6 | 8.0 | 0.00 | 0.00 | 0.00 | 69 | 1012.7 |
| 20260906050416 | 29 | 175 | 3.2 | 8.0 | 0.00 | 0.00 | 0.00 | 68 | 1012.8 |
| 20260906045913 | 29 | 161 | 3.2 | 8.0 | 0.00 | 0.00 | 0.00 | 68 | 1012.7 |
| 20260906045413 | 29 | 182 | 1.6 | 6.4 | 0.00 | 0.00 | 0.00 | 68 | 1012.8 |
| 20260906044909 | 29 | 164 | 3.2 | 8.0 | 0.00 | 0.00 | 0.00 | 68 | 1012.8 |
| 20260906044409 | 29 | 150 | 3.2 | 8.0 | 0.00 | 0.00 | 0.00 | 68 | 1012.9 |
| 20260906043908 | 29 | 169 | 1.6 | 8.0 | 0.00 | 0.00 | 0.00 | 67 | 1012.6 |
| 20260906043409 | 30 | 167 | 1.6 | 8.0 | 0.00 | 0.00 | 0.00 | 67 | 1012.7 |
| 20260906042910 | 30 | 168 | 1.6 | 8.0 | 0.00 | 0.00 | 0.00 | 67 | 1012.6 |
| 20260906042409 | 30 | 167 | 3.2 | 8.0 | 0.00 | 0.00 | 0.00 | 67 | 1012.7 |
| 20260906041908 | 30 | 173 | 3.2 | 8.0 | 0.00 | 0.00 | 0.00 | 66 | 1012.5 |
| 20260906041409 | 30 | 161 | 3.2 | 8.0 | 0.00 | 0.00 | 0.00 | 66 | 1012.6 |
| 20260906041201 | 30 | 116 | 3.2 | 9.7 | 0.00 | 0.00 | 0.00 | 66 | 1012.5 |
| 20260906040406 | 30 | 182 | 3.2 | 9.7 | 0.00 | 0.00 | 0.00 | 65 | 1012.6 |
| 20260906035906 | 30 | 138 | 3.2 | 9.7 | 0.00 | 0.00 | 0.00 | 65 | 1012.5 |
| 20260906035411 | 30 | 157 | 3.2 | 9.7 | 0.00 | 0.00 | 0.00 | 65 | 1012.6 |
| 20260906034907 | 30 | 181 | 4.8 | 12.9 | 0.00 | 0.00 | 0.00 | 64 | 1012.6 |
| 20260906034405 | 30 | 175 | 4.8 | 12.9 | 0.00 | 0.00 | 0.00 | 64 | 1012.6 |
| 20260906033906 | 30 | 160 | 4.8 | 12.9 | 0.00 | 0.00 | 0.00 | 63 | 1012.5 |
| 20260906033403 | 30 | 169 | 4.8 | 11.3 | 0.00 | 0.00 | 0.00 | 63 | 1012.6 |
| 20260906032905 | 30 | 153 | 3.2 | 11.3 | 0.00 | 0.00 | 0.00 | 62 | 1012.5 |
| 20260906032401 | 30 | 172 | 3.2 | 6.4 | 0.00 | 0.00 | 0.00 | 62 | 1012.5 |
| 20260906032200 | 30 | 144 | 1.6 | 4.8 | 0.00 | 0.00 | 0.00 | 62 | 1012.5 |
| 20260906031400 | 30 | 145 | 3.2 | 6.4 | 0.00 | 0.00 | 0.00 | 62 | 1012.7 |
| 20260906030943 | 31 | 161 | 3.2 | 8.0 | 0.00 | 0.00 | 0.00 | 61 | 1012.7 |
| 20260906030926 | 31 | 180 | 3.2 | 8.0 | 0.00 | 0.00 | 0.00 | 61 | 1012.7 |
| 20260906025848 | 31 | 116 | 3.2 | 12.9 | 0.00 | 0.00 | 0.00 | 60 | 1012.6 |
| 20260906025348 | 31 | 166 | 3.2 | 12.9 | 0.00 | 0.00 | 0.00 | 60 | 1012.6 |
| 20260906024846 | 31 | 143 | 4.8 | 12.9 | 0.00 | 0.00 | 0.00 | 60 | 1012.5 |
| 20260906024347 | 31 | 134 | 6.4 | 12.9 | 0.00 | 0.00 | 0.00 | 59 | 1012.4 |
| 20260906023846 | 31 | 141 | 6.4 | 12.9 | 0.00 | 0.00 | 0.00 | 59 | 1012.4 |
| 20260906023350 | 31 | 175 | 4.8 | 12.9 | 0.00 | 0.00 | 0.00 | 59 | 1012.3 |
| 20260906022845 | 31 | 197 | 3.2 | 12.9 | 0.00 | 0.00 | 0.00 | 59 | 1012.2 |
| 20260906022346 | 31 | 121 | 3.2 | 11.3 | 0.00 | 0.00 | 0.00 | 58 | 1012.1 |
| 20260906021845 | 31 | 167 | 4.8 | 11.3 | 0.00 | 0.00 | 0.00 | 58 | 1012.0 |
| 20260906021701 | 32 | 165 | 4.8 | 11.3 | 0.00 | 0.00 | 0.00 | 57 | 1012.0 |
| 20260906021157 | 32 | 87 | 3.2 | 11.3 | 0.00 | 0.00 | 0.00 | 56 | 1011.7 |
| 20260906020457 | 32 | 71 | 3.2 | 11.3 | 0.00 | 0.00 | 0.00 | 55 | 1011.9 |
| 20260906020429 | 32 | 190 | 3.2 | 11.3 | 0.00 | 0.00 | 0.00 | 56 | 1011.9 |
| 20260906015340 | 32 | 163 | 4.8 | 12.9 | 0.00 | 0.00 | 0.00 | 54 | 1011.8 |
| 20260906014840 | 33 | 135 | 4.8 | 14.5 | 0.00 | 0.00 | 0.00 | 53 | 1011.7 |
| 20260906014339 | 33 | 142 | 4.8 | 16.1 | 0.00 | 0.00 | 0.00 | 52 | 1011.5 |
| 20260906013838 | 33 | 155 | 6.4 | 16.1 | 0.00 | 0.00 | 0.00 | 52 | 1011.4 |
| 20260906013337 | 33 | 170 | 4.8 | 14.5 | 0.00 | 0.00 | 0.00 | 51 | 1011.2 |
| 20260906012837 | 33 | 150 | 4.8 | 14.5 | 0.00 | 0.00 | 0.00 | 51 | 1011.1 |
| 20260906012337 | 34 | 176 | 4.8 | 14.5 | 0.00 | 0.00 | 0.00 | 50 | 1011.1 |
| 20260906011837 | 34 | 180 | 3.2 | 12.9 | 0.00 | 0.00 | 0.00 | 48 | 1011.0 |
| 20260906011336 | 34 | 140 | 3.2 | 8.0 | 0.00 | 0.00 | 0.00 | 47 | 1010.8 |
| 20260906010834 | 34 | 166 | 3.2 | 12.9 | 0.00 | 0.00 | 0.00 | 46 | 1010.7 |
| 20260906010335 | 34 | 155 | 3.2 | 12.9 | 0.00 | 0.00 | 0.00 | 46 | 1010.7 |
| 20260906005833 | 35 | 123 | 1.6 | 6.4 | 0.00 | 0.00 | 0.00 | 45 | 1010.7 |
| 20260906005331 | 35 | 119 | 1.6 | 6.4 | 0.00 | 0.00 | 0.00 | 45 | 1010.7 |
| 20260906005126 | 35 | 173 | 3.2 | 11.3 | 0.00 | 0.00 | 0.00 | 44 | 1010.6 |
| 20260906004336 | 35 | 148 | 3.2 | 11.3 | 0.00 | 0.00 | 0.00 | 44 | 1010.8 |
| 20260906003829 | 35 | 157 | 3.2 | 9.7 | 0.00 | 0.00 | 0.00 | 44 | 1010.7 |
| 20260906003624 | 35 | 151 | 3.2 | 9.7 | 0.00 | 0.00 | 0.00 | 43 | 1010.8 |
| 20260906002826 | 35 | 122 | 3.2 | 9.7 | 0.00 | 0.00 | 0.00 | 43 | 1010.7 |
| 20260906002326 | 35 | 98 | 3.2 | 12.9 | 0.00 | 0.00 | 0.00 | 43 | 1010.6 |
| 20260906001826 | 36 | 136 | 3.2 | 12.9 | 0.00 | 0.00 | 0.00 | 42 | 1010.6 |
| 20260906001327 | 36 | 131 | 3.2 | 9.7 | 0.00 | 0.00 | 0.00 | 41 | 1010.7 |
| 20260906000826 | 36 | 138 | 4.8 | 11.3 | 0.00 | 0.00 | 0.00 | 41 | 1010.6 |
| 20260906000328 | 36 | 96 | 4.8 | 11.3 | 0.00 | 0.00 | 0.00 | 40 | 1010.6 |
| 20260905235827 | 37 | 157 | 3.2 | 9.7 | 0.00 | 0.00 | 0.00 | 40 | 1010.6 |
| 20260905235327 | 37 | 178 | 4.8 | 9.7 | 0.00 | 0.00 | 0.00 | 39 | 1010.2 |
| 20260905234827 | 37 | 109 | 3.2 | 9.7 | 0.00 | 0.00 | 0.00 | 40 | 1010.4 |
| 20260905234328 | 37 | 78 | 3.2 | 9.7 | 0.00 | 0.00 | 0.00 | 39 | 1010.1 |
| 20260905233826 | 37 | 182 | 3.2 | 8.0 | 0.00 | 0.00 | 0.00 | 39 | 1010.1 |
| 20260905233322 | 37 | 32 | 3.2 | 9.7 | 0.00 | 0.00 | 0.00 | 39 | 1010.2 |
| 20260905232824 | 37 | 13 | 3.2 | 9.7 | 0.00 | 0.00 | 0.00 | 39 | 1010.4 |
| 20260905232323 | 37 | 161 | 1.6 | 8.0 | 0.00 | 0.00 | 0.00 | 39 | 1010.4 |
| 20260905231823 | 37 | 209 | 3.2 | 14.5 | 0.00 | 0.00 | 0.00 | 38 | 1010.2 |
| 20260905231615 | 37 | 81 | 3.2 | 14.5 | 0.00 | 0.00 | 0.00 | 39 | 1010.4 |